Radiation Dose at Monitoring Post of Fukushima Daini Nuclear Power Station
Date,Time,MP-1(microSv/h),MP-2(microSv/h),MP-3(microSv/h),MP-4(microSv/h),MP-5(microSv/h),MP-6(microSv/h),MP-7(microSv/h),Wind Direction,Wind Velocity(m/s),Rain
2021/12/31,00:00,0.162,0.148,0.229,0.225,0.228,0.126,0.080,north-northwest,5.7,No
2021/12/31,00:10,0.161,0.147,0.230,0.226,0.228,0.126,0.080,north-northwest,5.5,No
2021/12/31,00:20,0.162,0.149,0.230,0.226,0.228,0.127,0.081,north-northwest,5.9,Yes
2021/12/31,00:30,0.162,0.149,0.231,0.225,0.228,0.126,0.081,north-northwest,4.4,Yes
2021/12/31,00:40,0.163,0.149,0.231,0.227,0.230,0.127,0.081,north-northwest,4.6,Yes
2021/12/31,00:50,0.162,0.150,0.232,0.227,0.229,0.126,0.081,north-northwest,4.2,Yes
2021/12/31,01:00,0.163,0.150,0.231,0.227,0.229,0.127,0.082,north-northwest,4.3,Yes
2021/12/31,01:10,0.163,0.150,0.231,0.226,0.228,0.128,0.081,north-northwest,4.3,Yes
2021/12/31,01:20,0.162,0.149,0.231,0.225,0.228,0.127,0.081,north-northwest,4.9,No
2021/12/31,01:30,0.160,0.148,0.231,0.226,0.229,0.126,0.081,north-northwest,5.0,No
2021/12/31,01:40,0.162,0.148,0.231,0.226,0.228,0.126,0.080,north-northwest,4.7,No
2021/12/31,01:50,0.162,0.149,0.231,0.225,0.229,0.126,0.081,north-northwest,4.3,No
2021/12/31,02:00,0.161,0.149,0.230,0.225,0.228,0.127,0.080,north-northwest,4.2,No
2021/12/31,02:10,0.162,0.148,0.231,0.225,0.229,0.126,0.081,northwest,4.6,No
2021/12/31,02:20,0.162,0.147,0.230,0.225,0.229,0.125,0.080,northwest,5.8,No
2021/12/31,02:30,0.161,0.148,0.231,0.224,0.228,0.126,0.080,north-northwest,5.3,No
2021/12/31,02:40,0.161,0.149,0.230,0.225,0.228,0.126,0.080,north-northwest,4.8,No
2021/12/31,02:50,0.161,0.149,0.231,0.225,0.228,0.124,0.080,north-northwest,5.2,No
2021/12/31,03:00,0.162,0.148,0.230,0.224,0.229,0.126,0.081,north-northwest,4.6,No
2021/12/31,03:10,0.161,0.148,0.228,0.226,0.228,0.126,0.080,north-northwest,4.5,No
2021/12/31,03:20,0.162,0.148,0.230,0.226,0.227,0.126,0.080,north-northwest,6.1,No
2021/12/31,03:30,0.161,0.148,0.230,0.225,0.228,0.126,0.081,north-northwest,6.1,No
2021/12/31,03:40,0.161,0.147,0.231,0.225,0.228,0.125,0.080,north-northwest,5.9,No
2021/12/31,03:50,0.162,0.149,0.232,0.226,0.229,0.126,0.080,north-northwest,5.6,No
2021/12/31,04:00,0.161,0.147,0.230,0.225,0.228,0.125,0.080,north-northwest,6.5,No
2021/12/31,04:10,0.161,0.148,0.231,0.225,0.227,0.127,0.080,north-northwest,6.2,No
2021/12/31,04:20,0.161,0.148,0.230,0.224,0.228,0.126,0.080,north-northwest,6.4,No
2021/12/31,04:30,0.161,0.149,0.231,0.226,0.228,0.126,0.080,north-northwest,5.5,No
2021/12/31,04:40,0.162,0.148,0.231,0.224,0.228,0.125,0.081,north-northwest,5.6,No
2021/12/31,04:50,0.161,0.149,0.229,0.225,0.228,0.125,0.081,north-northwest,5.7,No
2021/12/31,05:00,0.162,0.148,0.231,0.224,0.227,0.126,0.081,northwest,7.3,No
2021/12/31,05:10,0.162,0.149,0.230,0.225,0.229,0.125,0.080,north-northwest,7.7,No
2021/12/31,05:20,0.161,0.149,0.229,0.226,0.229,0.125,0.080,northwest,6.0,No
2021/12/31,05:30,0.161,0.148,0.230,0.226,0.228,0.125,0.080,north-northwest,6.8,No
2021/12/31,05:40,0.162,0.148,0.230,0.225,0.228,0.126,0.080,north-northwest,6.8,No
2021/12/31,05:50,0.161,0.148,0.231,0.225,0.227,0.126,0.081,northwest,8.1,No
2021/12/31,06:00,0.161,0.148,0.231,0.226,0.229,0.125,0.080,north-northwest,7.1,No
2021/12/31,06:10,0.161,0.149,0.232,0.225,0.229,0.125,0.080,northwest,6.4,No
2021/12/31,06:20,0.161,0.149,0.231,0.226,0.227,0.126,0.081,northwest,7.5,No
2021/12/31,06:30,0.162,0.148,0.231,0.225,0.228,0.126,0.081,north-northwest,7.0,No
2021/12/31,06:40,0.163,0.149,0.230,0.226,0.227,0.126,0.081,north-northwest,6.3,No
2021/12/31,06:50,0.163,0.149,0.231,0.226,0.228,0.126,0.080,north-northwest,6.4,No
2021/12/31,07:00,0.162,0.148,0.231,0.224,0.228,0.125,0.081,north-northwest,5.8,No
2021/12/31,07:10,0.162,0.149,0.231,0.225,0.229,0.125,0.080,north,5.6,No
2021/12/31,07:20,0.162,0.148,0.231,0.225,0.228,0.126,0.080,north,5.7,No
2021/12/31,07:30,0.161,0.148,0.230,0.226,0.228,0.125,0.080,north,5.8,No
2021/12/31,07:40,0.162,0.148,0.230,0.226,0.227,0.125,0.080,north-northwest,5.1,No
2021/12/31,07:50,0.161,0.149,0.230,0.226,0.228,0.126,0.080,north,5.1,No
2021/12/31,08:00,0.163,0.148,0.230,0.226,0.228,0.126,0.080,north,4.4,No
2021/12/31,08:10,0.161,0.149,0.231,0.225,0.228,0.126,0.080,north,3.6,No
2021/12/31,08:20,0.162,0.148,0.230,0.226,0.229,0.125,0.080,north,3.1,No
2021/12/31,08:30,0.161,0.148,0.228,0.225,0.228,0.125,0.080,north,3.3,No
2021/12/31,08:40,0.161,0.147,0.230,0.224,0.227,0.125,0.080,north,3.2,No
2021/12/31,08:50,0.162,0.149,0.230,0.224,0.228,0.126,0.080,north-northwest,3.7,No
2021/12/31,09:00,0.161,0.148,0.230,0.224,0.228,0.126,0.079,north-northwest,3.6,No
2021/12/31,09:10,0.161,0.148,0.231,0.225,0.229,0.125,0.080,north-northwest,4.0,No
2021/12/31,09:20,0.162,0.148,0.229,0.224,0.228,0.125,0.081,north-northwest,3.5,No
2021/12/31,09:30,0.160,0.148,0.230,0.225,0.229,0.126,0.080,north-northwest,5.1,No
2021/12/31,09:40,0.161,0.148,0.231,0.224,0.228,0.125,0.080,north-northwest,2.8,No
2021/12/31,09:50,0.162,0.148,0.231,0.227,0.228,0.126,0.080,north-northwest,2.9,No
2021/12/31,10:00,0.161,0.148,0.231,0.225,0.227,0.127,0.080,north-northwest,3.9,No
2021/12/31,10:10,0.162,0.147,0.231,0.225,0.227,0.126,0.080,north-northwest,3.4,No
2021/12/31,10:20,0.161,0.148,0.230,0.225,0.227,0.126,0.080,north-northwest,2.2,No
2021/12/31,10:30,0.161,0.147,0.230,0.225,0.227,0.126,0.081,north,2.0,No
2021/12/31,10:40,0.162,0.149,0.228,0.226,0.227,0.126,0.080,north-northwest,4.5,No
2021/12/31,10:50,0.162,0.149,0.230,0.224,0.228,0.127,0.080,west-northwest,3.8,No
2021/12/31,11:00,0.161,0.148,0.230,0.226,0.228,0.126,0.080,northwest,5.6,No
2021/12/31,11:10,0.162,0.148,0.229,0.225,0.229,0.126,0.081,northwest,4.2,No
2021/12/31,11:20,0.162,0.149,0.230,0.226,0.229,0.126,0.080,northwest,4.2,No
2021/12/31,11:30,0.161,0.148,0.231,0.226,0.228,0.126,0.081,west-northwest,4.6,No
2021/12/31,11:40,0.160,0.148,0.229,0.225,0.229,0.126,0.080,northwest,6.0,No
2021/12/31,11:50,0.161,0.148,0.231,0.226,0.229,0.126,0.081,northwest,6.5,No
2021/12/31,12:00,0.161,0.148,0.231,0.225,0.227,0.126,0.080,northwest,5.5,No
2021/12/31,12:10,0.161,0.149,0.231,0.226,0.229,0.126,0.080,northwest,7.0,No
2021/12/31,12:20,0.162,0.149,0.231,0.227,0.229,0.126,0.079,northwest,6.8,No
2021/12/31,12:30,0.161,0.149,0.231,0.225,0.229,0.126,0.080,northwest,8.4,No
2021/12/31,12:40,0.161,0.149,0.230,0.227,0.230,0.127,0.081,northwest,10.3,No
2021/12/31,12:50,0.163,0.149,0.231,0.226,0.229,0.127,0.080,northwest,9.5,No
2021/12/31,13:00,0.162,0.149,0.231,0.225,0.230,0.126,0.080,northwest,7.3,No
2021/12/31,13:10,0.162,0.149,0.231,0.224,0.229,0.126,0.080,west-northwest,9.0,No
2021/12/31,13:20,0.162,0.149,0.233,0.227,0.229,0.126,0.079,west-northwest,8.7,Yes
2021/12/31,13:30,0.163,0.150,0.233,0.228,0.230,0.128,0.082,west-northwest,9.0,Yes
2021/12/31,13:40,0.163,0.151,0.233,0.228,0.229,0.128,0.083,west-northwest,7.0,Yes
2021/12/31,13:50,0.164,0.150,0.233,0.228,0.231,0.128,0.083,west-northwest,7.0,No
2021/12/31,14:00,0.163,0.150,0.232,0.229,0.230,0.128,0.082,west-northwest,8.1,No
2021/12/31,14:10,0.163,0.150,0.232,0.228,0.230,0.128,0.081,west-northwest,5.0,No
2021/12/31,14:20,0.163,0.149,0.232,0.226,0.228,0.128,0.082,west-northwest,6.8,No
2021/12/31,14:30,0.163,0.149,0.232,0.228,0.230,0.128,0.083,west-northwest,8.4,No
2021/12/31,14:40,0.162,0.149,0.232,0.227,0.228,0.127,0.082,northwest,7.3,No
2021/12/31,14:50,0.162,0.149,0.230,0.227,0.229,0.126,0.082,west-northwest,4.9,No
2021/12/31,15:00,0.162,0.149,0.233,0.226,0.229,0.127,0.081,north-northwest,8.4,No
2021/12/31,15:10,0.163,0.148,0.230,0.227,0.229,0.126,0.081,northwest,5.1,No
2021/12/31,15:20,0.164,0.149,0.231,0.228,0.229,0.127,0.080,west-northwest,4.1,No
2021/12/31,15:30,0.163,0.149,0.231,0.226,0.229,0.127,0.081,northwest,5.9,No
2021/12/31,15:40,0.163,0.150,0.232,0.227,0.228,0.126,0.081,west-northwest,9.5,No
2021/12/31,15:50,0.163,0.149,0.231,0.226,0.228,0.126,0.080,west-northwest,10.0,No
2021/12/31,16:00,0.163,0.148,0.231,0.228,0.229,0.126,0.081,west,7.3,No
2021/12/31,16:10,0.162,0.149,0.232,0.226,0.228,0.125,0.080,west,9.2,No
2021/12/31,16:20,0.162,0.148,0.232,0.226,0.229,0.126,0.080,west,9.5,No
2021/12/31,16:30,0.162,0.148,0.232,0.227,0.229,0.126,0.080,west,10.4,No
2021/12/31,16:40,0.162,0.149,0.231,0.226,0.228,0.126,0.080,west,10.9,No
2021/12/31,16:50,0.162,0.148,0.231,0.227,0.228,0.126,0.080,west,8.4,No
2021/12/31,17:00,0.163,0.148,0.232,0.226,0.228,0.126,0.081,west-northwest,4.4,No
2021/12/31,17:10,0.161,0.148,0.231,0.226,0.230,0.126,0.080,northwest,5.6,No
2021/12/31,17:20,0.162,0.148,0.231,0.226,0.228,0.126,0.081,north,5.5,No
2021/12/31,17:30,0.162,0.147,0.231,0.226,0.228,0.127,0.080,north,6.1,No
2021/12/31,17:40,0.162,0.148,0.231,0.226,0.229,0.126,0.080,north-northwest,5.9,No
2021/12/31,17:50,0.163,0.148,0.230,0.226,0.228,0.126,0.080,north-northwest,5.3,No
2021/12/31,18:00,0.161,0.149,0.231,0.226,0.227,0.126,0.081,north-northwest,4.4,No
2021/12/31,18:10,0.161,0.148,0.232,0.225,0.227,0.125,0.081,northwest,4.8,No
2021/12/31,18:20,0.162,0.148,0.231,0.225,0.227,0.126,0.080,northwest,8.9,No
2021/12/31,18:30,0.161,0.148,0.230,0.225,0.227,0.125,0.080,northwest,5.8,No
2021/12/31,18:40,0.161,0.148,0.230,0.225,0.228,0.126,0.080,west-northwest,9.6,No
2021/12/31,18:50,0.161,0.147,0.230,0.224,0.227,0.126,0.080,northwest,5.6,No
2021/12/31,19:00,0.161,0.149,0.231,0.225,0.228,0.126,0.080,north-northwest,4.1,No
2021/12/31,19:10,0.160,0.149,0.230,0.226,0.228,0.125,0.080,northwest,6.3,No
2021/12/31,19:20,0.161,0.148,0.230,0.225,0.228,0.125,0.079,west-northwest,5.6,No
2021/12/31,19:30,0.161,0.147,0.229,0.225,0.228,0.126,0.079,northwest,4.3,No
2021/12/31,19:40,0.162,0.147,0.230,0.226,0.229,0.125,0.079,northwest,2.9,No
2021/12/31,19:50,0.161,0.146,0.231,0.225,0.227,0.125,0.079,northwest,8.4,No
2021/12/31,20:00,0.161,0.148,0.230,0.225,0.227,0.125,0.080,west-northwest,4.6,No
2021/12/31,20:10,0.160,0.148,0.230,0.225,0.228,0.125,0.080,northwest,3.6,No
2021/12/31,20:20,0.160,0.147,0.229,0.224,0.228,0.125,0.079,west-northwest,6.1,No
2021/12/31,20:30,0.161,0.148,0.230,0.225,0.227,0.125,0.080,west-northwest,10.4,No
2021/12/31,20:40,0.160,0.147,0.231,0.226,0.227,0.125,0.080,west-northwest,18.4,No
2021/12/31,20:50,0.161,0.148,0.230,0.225,0.227,0.125,0.080,west,19.6,No
2021/12/31,21:00,0.160,0.148,0.230,0.225,0.226,0.125,0.080,west,19.2,No
2021/12/31,21:10,0.161,0.148,0.231,0.225,0.227,0.125,0.080,west,18.3,No
2021/12/31,21:20,0.161,0.149,0.230,0.225,0.229,0.125,0.080,west,14.0,No
2021/12/31,21:30,0.161,0.149,0.229,0.225,0.229,0.125,0.079,west,14.2,No
2021/12/31,21:40,0.162,0.149,0.230,0.225,0.228,0.126,0.080,west,11.1,No
2021/12/31,21:50,0.162,0.148,0.231,0.226,0.228,0.126,0.080,west,12.0,No
2021/12/31,22:00,0.161,0.147,0.230,0.223,0.228,0.126,0.080,west,10.4,No
2021/12/31,22:10,0.161,0.149,0.231,0.225,0.228,0.126,0.080,west,10.4,No
2021/12/31,22:20,0.161,0.148,0.231,0.225,0.228,0.125,0.079,west,9.5,No
2021/12/31,22:30,0.161,0.147,0.230,0.226,0.227,0.125,0.079,west,8.1,No
2021/12/31,22:40,0.162,0.147,0.230,0.226,0.228,0.125,0.080,west-southwest,8.3,No
2021/12/31,22:50,0.161,0.148,0.231,0.226,0.228,0.125,0.080,west,7.1,No
2021/12/31,23:00,0.162,0.148,0.231,0.225,0.227,0.126,0.080,west,9.0,No
2021/12/31,23:10,0.161,0.148,0.230,0.225,0.227,0.126,0.080,west,9.5,No
2021/12/31,23:20,0.160,0.148,0.231,0.225,0.227,0.126,0.080,west,8.1,No
2021/12/31,23:30,0.161,0.149,0.229,0.225,0.228,0.125,0.079,west,7.0,No
2021/12/31,23:40,0.161,0.147,0.230,0.225,0.227,0.125,0.080,west-southwest,7.3,No
2021/12/31,23:50,0.160,0.148,0.230,0.226,0.228,0.126,0.080,west,7.3,No
